DW1449 Weather Reports


time (UTC)temp
C
wind
direction
speed
KPH
gust
KPH
rain 1hr
cm
rain 24hr
cm
rain mn
cm
humidity
%
barometer
mb
20260502163533 21 0.0 0.0 0.00 0.00 0.00 45 1014.8
20260502163045 21 0.0 0.0 0.00 0.00 0.00 45 1014.7
20260502162534 21 0.0 0.0 0.00 0.00 0.00 45 1014.9
20260502162033 21 0.0 0.0 0.00 0.00 0.00 44 1014.9
20260502161551 21 0.0 0.0 0.00 0.00 0.00 45 1015.0
20260502161035 21 0.0 0.0 0.00 0.00 0.00 45 1014.9
20260502160534 21 0.0 0.0 0.00 0.00 0.00 44 1015.1
20260502152034 21 0.0 0.0 0.00 0.00 0.00 43 1015.5
20260502151556 21 0.0 0.0 0.00 0.00 0.00 43 1015.5
20260502151036 21 0.0 0.0 0.00 0.00 0.00 43 1015.7
20260502150534 21 0.0 0.0 0.00 0.00 0.00 45 1015.7
20260502130539 21 0.0 0.0 0.00 0.00 0.00 50 1017.2
20260502123534 21 0.0 0.0 0.00 0.00 0.00 51 1017.6
20260502123044 21 0.0 0.0 0.00 0.00 0.00 49 1017.6
20260502122534 21 0.0 0.0 0.00 0.00 0.00 51 1017.9
20260502122034 20 0.0 0.0 0.00 0.00 0.00 52 1017.8
20260502121546 21 0.0 0.0 0.00 0.00 0.00 50 1017.9
20260502121034 20 0.0 0.0 0.00 0.00 0.00 53 1018.0
20260502120534 20 0.0 0.0 0.00 0.00 0.00 51 1018.1
20260502115534 20 0.0 0.0 0.00 0.00 0.00 53 1018.1
20260502115034 20 0.0 0.0 0.00 0.00 0.00 54 1018.1
20260502114621 20 0.0 0.0 0.00 0.00 0.00 54 1018.2
20260502114034 20 0.0 0.0 0.00 0.00 0.00 55 1018.2
20260502113536 20 0.0 0.0 0.00 0.00 0.00 55 1018.2
20260502113050 20 0.0 0.0 0.00 0.00 0.00 55 1018.4
20260502112535 20 0.0 0.0 0.00 0.00 0.00 56 1018.4
20260502112034 19 0.0 0.0 0.00 0.00 0.00 57 1018.3
20260502111543 19 0.0 0.0 0.00 0.00 0.00 54 1018.6
20260502111031 19 0.0 0.0 0.00 0.00 0.00 54 1018.6
20260502110536 19 0.0 0.0 0.00 0.00 0.00 56 1018.5
20260502110043 19 0.0 0.0 0.00 0.00 0.00 57 1018.8
20260502105534 19 0.0 0.0 0.00 0.00 0.00 54 1018.8
20260502105033 19 0.0 0.0 0.00 0.00 0.00 56 1018.9
20260502104549 19 0.0 0.0 0.00 0.00 0.00 56 1019.0
20260502104035 19 0.0 0.0 0.00 0.00 0.00 57 1019.0
20260502103536 18 0.0 0.0 0.00 0.00 0.00 56 1018.9
20260502103047 18 0.0 0.0 0.00 0.00 0.00 56 1019.1
20260502102534 18 0.0 0.0 0.00 0.00 0.00 57 1019.1
20260502102035 18 0.0 0.0 0.00 0.00 0.00 58 1019.1
20260502101604 18 0.0 0.0 0.00 0.00 0.00 59 1019.0
20260502101036 18 0.0 0.0 0.00 0.00 0.00 56 1019.0
20260502100534 18 0.0 0.0 0.00 0.00 0.00 57 1019.2
20260502100107 18 0.0 0.0 0.00 0.00 0.00 58 1019.2
20260502091037 17 0.0 0.0 0.00 0.00 0.00 57 1019.7
20260502090533 17 0.0 0.0 0.00 0.00 0.00 60 1019.6
20260502071035 16 0.0 0.0 0.00 0.00 0.00 61 1020.2
20260502070536 16 0.0 0.0 0.00 0.00 0.00 62 1020.4
20260502070059 15 0.0 0.0 0.00 0.00 0.00 61 1020.4
20260502065536 15 0.0 0.0 0.00 0.00 0.00 63 1020.4
20260502065035 15 0.0 0.0 0.00 0.00 0.00 62 1020.4
20260502064611 15 0.0 0.0 0.00 0.00 0.00 63 1020.6
20260502064035 15 0.0 0.0 0.00 0.00 0.00 66 1020.5
20260502063536 15 0.0 0.0 0.00 0.00 0.00 66 1020.5
20260502063054 14 0.0 0.0 0.00 0.00 0.00 65 1020.6
20260502062534 14 0.0 0.0 0.00 0.00 0.00 67 1020.8
20260502062038 13 0.0 0.0 0.00 0.00 0.00 65 1020.6
20260502061550 13 0.0 0.0 0.00 0.00 0.00 65 1020.9
20260502061036 13 0.0 0.0 0.00 0.00 0.00 66 1020.8
20260502060538 13 0.0 0.0 0.00 0.00 0.00 66 1021.0
20260502060047 13 0.0 0.0 0.00 0.00 0.00 66 1021.0
20260502055538 13 0.0 0.0 0.00 0.00 0.00 67 1021.0
20260502055037 13 0.0 0.0 0.00 0.00 0.00 67 1021.0
20260502054542 12 0.0 0.0 0.00 0.00 0.00 66 1021.0
20260502054035 12 0.0 0.0 0.00 0.00 0.00 67 1021.0
20260502053535 12 0.0 0.0 0.00 0.00 0.00 68 1021.0
20260502053055 12 0.0 0.0 0.00 0.00 0.00 68 1021.0
20260502052537 12 0.0 0.0 0.00 0.00 0.00 68 1021.2
20260502052035 12 0.0 0.0 0.00 0.00 0.00 69 1021.1
20260502051548 11 0.0 0.0 0.00 0.00 0.00 69 1021.1
20260502051033 11 0.0 0.0 0.00 0.00 0.00 71 1021.2
20260502050537 11 0.0 0.0 0.00 0.00 0.00 71 1021.4
20260502050047 11 0.0 0.0 0.00 0.00 0.00 72 1021.4
20260502045534 10 0.0 0.0 0.00 0.00 0.00 73 1021.4
20260502045035 10 0.0 0.0 0.00 0.00 0.00 74 1021.5
20260502044543 10 0.0 0.0 0.00 0.00 0.00 74 1021.5
20260502044035 10 0.0 0.0 0.00 0.00 0.00 74 1021.4
20260502043534 9 0.0 0.0 0.00 0.00 0.00 75 1021.5
20260502043113 9 0.0 0.0 0.00 0.00 0.00 74 1021.6
20260502042536 9 0.0 0.0 0.00 0.00 0.00 75 1021.6
20260502042035 9 0.0 0.0 0.00 0.00 0.00 75 1021.6
20260502041548 9 0.0 0.0 0.00 0.00 0.00 75 1021.6
20260502041038 8 0.0 0.0 0.00 0.00 0.00 76 1021.7
20260502040534 8 0.0 0.0 0.00 0.00 0.00 77 1021.7
20260502040039 8 0.0 0.0 0.00 0.00 0.00 77 1021.7
20260502035535 8 0.0 0.0 0.00 0.00 0.00 78 1021.7
20260502035035 8 0.0 0.0 0.00 0.00 0.00 78 1021.8
20260502034544 8 0.0 0.0 0.00 0.00 0.00 78 1021.8
20260502034036 8 0.0 0.0 0.00 0.00 0.00 78 1022.0
20260502033535 8 0.0 0.0 0.00 0.00 0.00 79 1021.9
20260502033042 8 0.0 0.0 0.00 0.00 0.00 79 1022.0
20260502032535 8 0.0 0.0 0.00 0.00 0.00 79 1022.0
20260502032034 8 0.0 0.0 0.00 0.00 0.00 79 1022.2
20260502031540 8 0.0 0.0 0.00 0.00 0.00 79 1022.2
20260502031034 8 0.0 0.0 0.00 0.00 0.00 79 1022.2
20260502030535 8 0.0 0.0 0.00 0.00 0.00 79 1022.2
20260502030051 8 0.0 0.0 0.00 0.00 0.00 79 1022.4
20260502025535 8 0.0 0.0 0.00 0.00 0.00 79 1022.5
20260502025035 8 0.0 0.0 0.00 0.00 0.00 79 1022.5
20260502024547 8 0.0 0.0 0.00 0.00 0.00 79 1022.6
20260502024034 8 0.0 0.0 0.00 0.00 0.00 79 1022.6
20260502023537 8 0.0 0.0 0.00 0.00 0.00 78 1022.6
20260502023052 8 0.0 0.0 0.00 0.00 0.00 78 1022.7
20260502022534 8 0.0 0.0 0.00 0.00 0.00 78 1022.7
20260502022036 8 0.0 0.0 0.00 0.00 0.00 77 1022.7
20260502021541 8 0.0 0.0 0.00 0.00 0.00 78 1022.7
20260502021036 8 0.0 0.0 0.00 0.00 0.00 77 1022.8
20260502020539 8 0.0 0.0 0.00 0.00 0.00 77 1023.0
20260502020048 8 0.0 0.0 0.00 0.00 0.00 78 1022.8
20260502015536 8 0.0 0.0 0.00 0.00 0.00 78 1023.0
20260502015033 8 0.0 0.0 0.00 0.00 0.00 78 1023.0
20260502014548 9 0.0 0.0 0.00 0.00 0.00 78 1023.1
20260502014033 9 0.0 0.0 0.00 0.00 0.00 77 1023.2
20260502013535 9 0.0 0.0 0.00 0.00 0.00 78 1023.1
20260502013051 8 0.0 0.0 0.00 0.00 0.00 77 1023.4
20260502012535 9 0.0 0.0 0.00 0.00 0.00 76 1023.2
20260502012033 9 0.0 0.0 0.00 0.00 0.00 77 1023.1
20260502011556 9 0.0 0.0 0.00 0.00 0.00 77 1023.2
20260502011035 9 0.0 0.0 0.00 0.00 0.00 78 1023.3
20260502010535 9 0.0 0.0 0.00 0.00 0.00 78 1023.3
20260502010052 8 0.0 0.0 0.00 0.00 0.00 79 1023.3
20260502005534 8 0.0 0.0 0.00 0.00 0.00 80 1023.4
20260502005032 8 0.0 0.0 0.00 0.00 0.00 81 1023.5
20260502004549 7 0.0 0.0 0.00 0.00 0.00 80 1023.6
20260502004033 7 0.0 0.0 0.00 0.00 0.00 81 1023.7
20260502003532 7 0.0 0.0 0.00 0.00 0.00 80 1023.7
20260502003046 7 0.0 0.0 0.00 0.00 0.00 80 1023.8
20260502002532 7 0.0 0.0 0.00 0.00 0.00 80 1023.7
20260502002035 7 0.0 0.0 0.00 0.00 0.00 80 1023.8
20260502001547 7 0.0 0.0 0.00 0.00 0.00 80 1023.7
20260502001034 7 0.0 0.0 0.00 0.00 0.00 80 1023.9
20260502000532 7 0.0 0.0 0.00 0.00 0.00 80 1023.8
20260502000051 7 0.0 0.0 0.00 0.00 0.00 80 1023.9
20260501235532 7 0.0 0.0 0.00 0.00 0.00 79 1023.9
20260501235032 7 0.0 0.0 0.00 0.00 0.00 79 1023.9
20260501234542 7 0.0 0.0 0.00 0.00 0.00 78 1024.0
20260501234034 7 0.0 0.0 0.00 0.00 0.00 77 1024.1
20260501233535 7 0.0 0.0 0.00 0.00 0.00 77 1024.0
20260501233047 8 0.0 0.0 0.00 0.00 0.00 77 1024.0
20260501232535 8 0.0 0.0 0.00 0.00 0.00 76 1024.0
20260501232040 8 0.0 0.0 0.00 0.00 0.00 75 1024.0
20260501231546 8 0.0 0.0 0.00 0.00 0.00 75 1024.1
20260501231035 9 0.0 0.0 0.00 0.00 0.00 75 1024.2
20260501230535 9 0.0 0.0 0.00 0.00 0.00 75 1024.2
20260501230042 9 0.0 0.0 0.00 0.00 0.00 74 1024.3
20260501225538 9 0.0 0.0 0.00 0.00 0.00 73 1024.4
20260501225036 9 0.0 0.0 0.00 0.00 0.00 72 1024.4
20260501224542 10 0.0 0.0 0.00 0.00 0.00 71 1024.4
20260501224033 10 0.0 0.0 0.00 0.00 0.00 71 1024.4
20260501223532 10 0.0 0.0 0.00 0.00 0.00 71 1024.5
20260501223042 10 0.0 0.0 0.00 0.00 0.00 70 1024.4
20260501222535 10 0.0 0.0 0.00 0.00 0.00 70 1024.4
20260501222033 10 0.0 0.0 0.00 0.00 0.00 68 1024.4
20260501221540 10 0.0 0.0 0.00 0.00 0.00 67 1024.5
20260501221035 10 0.0 0.0 0.00 0.00 0.00 67 1024.6
20260501220535 11 0.0 0.0 0.00 0.00 0.00 67 1024.7
20260501220046 11 0.0 0.0 0.00 0.00 0.00 66 1024.7
20260501215532 11 0.0 0.0 0.00 0.00 0.00 65 1024.7
20260501215035 11 0.0 0.0 0.00 0.00 0.00 65 1024.6
20260501214537 11 0.0 0.0 0.00 0.00 0.00 65 1024.7
20260501214037 11 0.0 0.0 0.00 0.00 0.00 65 1024.9
20260501213533 11 0.0 0.0 0.00 0.00 0.00 66 1024.8
20260501213047 10 0.0 0.0 0.00 0.00 0.00 67 1024.8
20260501212534 10 0.0 0.0 0.00 0.00 0.00 68 1025.1
20260501212035 11 0.0 0.0 0.00 0.00 0.00 68 1024.9
20260501211544 11 0.0 0.0 0.00 0.00 0.00 67 1024.9
20260501211034 11 0.0 0.0 0.00 0.00 0.00 66 1024.9
20260501210535 11 0.0 0.0 0.00 0.00 0.00 67 1024.9
20260501210040 11 0.0 0.0 0.00 0.00 0.00 68 1024.9
20260501205535 11 0.0 0.0 0.00 0.00 0.00 68 1025.0
20260501205033 11 0.0 0.0 0.00 0.00 0.00 67 1025.0
20260501204557 11 0.0 0.0 0.00 0.00 0.00 67 1025.1
20260501204035 11 0.0 0.0 0.00 0.00 0.00 68 1025.1
20260501203535 11 0.0 0.0 0.00 0.00 0.00 69 1025.1
20260501203043 11 0.0 0.0 0.00 0.00 0.00 69 1025.1
20260501202535 11 0.0 0.0 0.00 0.00 0.00 69 1025.3
20260501202035 11 0.0 0.0 0.00 0.00 0.00 66 1025.1
20260501201545 12 0.0 0.0 0.00 0.00 0.00 65 1025.2
20260501201035 12 0.0 0.0 0.00 0.00 0.00 65 1025.2
20260501200534 12 0.0 0.0 0.00 0.00 0.00 64 1025.2
20260501200047 12 0.0 0.0 0.00 0.00 0.00 64 1025.2
20260501195535 12 0.0 0.0 0.00 0.00 0.00 65 1025.3
20260501195035 11 0.0 0.0 0.00 0.00 0.00 66 1025.4
20260501194548 11 0.0 0.0 0.00 0.00 0.00 65 1025.3
20260501194033 12 0.0 0.0 0.00 0.00 0.00 65 1025.2
20260501193532 12 0.0 0.0 0.00 0.00 0.00 64 1025.3
20260501193045 12 0.0 0.0 0.00 0.00 0.00 64 1025.5
20260501192532 12 0.0 0.0 0.00 0.00 0.00 62 1025.2
20260501192032 12 0.0 0.0 0.00 0.00 0.00 61 1025.5
20260501191546 13 0.0 0.0 0.00 0.00 0.00 61 1025.4
20260501191032 13 0.0 0.0 0.00 0.00 0.00 61 1025.4
20260501190534 13 0.0 0.0 0.00 0.00 0.00 60 1025.3
20260501190049 13 0.0 0.0 0.00 0.00 0.00 59 1025.3
20260501185536 14 0.0 0.0 0.00 0.00 0.00 57 1025.3
20260501185036 15 0.0 0.0 0.00 0.00 0.00 55 1025.3
20260501184547 15 0.0 0.0 0.00 0.00 0.00 52 1025.4
20260501184038 16 0.0 0.0 0.00 0.00 0.00 50 1025.5
20260501183536 17 0.0 0.0 0.00 0.00 0.00 48 1025.4
20260501183053 17 0.0 0.0 0.00 0.00 0.00 48 1025.4
20260501182533 17 0.0 0.0 0.00 0.00 0.00 47 1025.4
20260501182032 17 0.0 0.0 0.00 0.00 0.00 47 1025.4
20260501181550 17 0.0 0.0 0.00 0.00 0.00 49 1025.4
20260501181032 17 0.0 0.0 0.00 0.00 0.00 47 1025.4
20260501180536 17 0.0 0.0 0.00 0.00 0.00 47 1025.3
20260501180051 17 0.0 0.0 0.00 0.00 0.00 46 1025.5
20260501175535 17 0.0 0.0 0.00 0.00 0.00 46 1025.6
20260501175034 17 0.0 0.0 0.00 0.00 0.00 46 1025.5
20260501174545 17 0.0 0.0 0.00 0.00 0.00 47 1025.5
20260501174035 17 0.0 0.0 0.00 0.00 0.00 49 1025.5
20260501173532 17 0.0 0.0 0.00 0.00 0.00 47 1025.6
20260501173047 17 0.0 0.0 0.00 0.00 0.00 47 1025.7
20260501172534 17 0.0 0.0 0.00 0.00 0.00 46 1025.8
20260501172034 17 0.0 0.0 0.00 0.00 0.00 47 1025.6
20260501171557 17 0.0 0.0 0.00 0.00 0.00 46 1025.7
20260501171032 17 0.0 0.0 0.00 0.00 0.00 45 1025.8
20260501170535 17 0.0 0.0 0.00 0.00 0.00 46 1025.9
20260501170049 17 0.0 0.0 0.00 0.00 0.00 45 1025.9
20260501165535 17 0.0 0.0 0.00 0.00 0.00 45 1025.9
20260501165034 17 0.0 0.0 0.00 0.00 0.00 44 1025.9
20260501164539 17 0.0 0.0 0.00 0.00 0.00 45 1025.9
20260501164034 17 0.0 0.0 0.00 0.00 0.00 44 1025.9